This is the latest recevied weather packets stored in our database for station/object AA0PB. If no packets are shown the sender has not sent any weather packets the latest 10 day(s).
| Time | Temp. | Humidity | Pressure | Rain* | Wind** | Luminosity | Snow |
|---|---|---|---|---|---|---|---|
| 1777251885 | 18.89° C | 52% | 1010.6 hPa | 0 mm | - | 224 W/m² | - |
| 1777251582 | 18.89° C | 52% | 1010.6 hPa | 0 mm | - | 79 W/m² | - |
| 1777251279 | 18.89° C | 52% | 1010.6 hPa | 0 mm | - | 78 W/m² | - |
| 1777250975 | 18.89° C | 51% | 1010.5 hPa | 0 mm | - | 73 W/m² | - |
| 1777250671 | 18.89° C | 51% | 1010.3 hPa | 0 mm | - | 78 W/m² | - |
| 1777250368 | 18.89° C | 49% | 1010.4 hPa | 0 mm | - | 86 W/m² | - |
| 1777250062 | 19.44° C | 49% | 1010.2 hPa | 0 mm | - | 86 W/m² | - |
| 1777249759 | 19.44° C | 48% | 1010.1 hPa | 0 mm | - | 86 W/m² | - |
| 1777249455 | 20° C | 46% | 1010.3 hPa | 0 mm | - | 96 W/m² | - |
| 1777249152 | 20.56° C | 45% | 1010.1 hPa | 0 mm | - | 274 W/m² | - |
| 1777248848 | 20.56° C | 46% | 1010.4 hPa | 0 mm | - | 345 W/m² | - |
| 1777248545 | 19.44° C | 45% | 1010.1 hPa | 0 mm | - | 332 W/m² | - |
| 1777248242 | 19.44° C | 44% | 1010.3 hPa | 0 mm | - | 107 W/m² | - |
| 1777247936 | 19.44° C | 45% | 1010.2 hPa | 0 mm | - | 102 W/m² | - |
| 1777247631 | 19.44° C | 44% | 1010.4 hPa | 0 mm | - | 101 W/m² | - |
| 1777247330 | 19.44° C | 44% | 1010.2 hPa | 0 mm | - | 93 W/m² | - |
| 1777247027 | 20° C | 42% | 1010.2 hPa | 0 mm | - | 96 W/m² | - |
| 1777246724 | 20° C | 42% | 1010.2 hPa | 0 mm | - | 185 W/m² | - |
| 1777246420 | 19.44° C | 41% | 1010 hPa | 0 mm | - | 104 W/m² | - |
| 1777246117 | 19.44° C | 40% | 1010.1 hPa | 0 mm | - | 108 W/m² | - |
| 1777245815 | 20° C | 40% | 1010.2 hPa | 0 mm | - | 105 W/m² | - |
| 1777245513 | 20° C | 37% | 1010.1 hPa | 0 mm | - | 104 W/m² | - |
| 1777245208 | 20° C | 36% | 1010 hPa | 0 mm | - | 111 W/m² | - |
| 1777244904 | 20.56° C | 33% | 1010.2 hPa | 0 mm | - | 105 W/m² | - |
| 1777244600 | 21.67° C | 25% | 1010.1 hPa | 0 mm | - | 98 W/m² | - |
* Rain latest hour (hover to see other rain measurements)
** Current wind speed in m/s (hover to see current wind gust speed)